AO-07 1 07530U 74089B 25308.98323770 -.00000031 00000-0 97994-4 0 9997 2 07530 101.9979 314.8511 0012097 198.1892 189.6315 12.53693080332427 UO-11 1 14781U 84021B 25308.85167399 .00002127 00000-0 22659-3 0 9991 2 14781 97.7751 272.4859 0007019 194.3754 165.7265 14.89943351223710 AO-27 1 22825U 93061C 25309.16787621 .00000166 00000-0 80512-4 0 9998 2 22825 98.7197 11.3369 0009066 43.5360 316.6537 14.30855097674962 FO-29 1 24278U 96046B 25309.21404341 -.00000013 00000-0 25428-4 0 9996 2 24278 98.5496 183.3788 0349291 317.5424 39.9172 13.53258920442872 NOAA-15 1 25338U 98030A 25309.31818422 .00000190 00000-0 95722-4 0 9998 2 25338 98.5259 330.8125 0009131 285.2745 74.7426 14.27047144429368 GO-32 1 25397U 98043D 25309.19544543 .00000095 00000-0 61321-4 0 9995 2 25397 98.9886 291.5467 0002078 117.9958 242.1431 14.24360500419441 ISS 1 25544U 98067A 25308.93822298 .00010846 00000-0 19941-3 0 9997 2 25544 51.6335 329.6155 0005046 18.0946 342.0222 15.49755997536997 NO-44 1 26931U 01043C 25309.15631033 .00000222 00000-0 11396-3 0 9999 2 26931 67.0492 103.6676 0007189 272.0825 87.9454 14.31820300258375 SO-50 1 27607U 02058C 25308.82143132 .00001617 00000-0 21256-3 0 9993 2 27607 64.5513 102.7714 0069848 303.6217 55.8236 14.82168011231194 CO-55 1 27844U 03031E 25309.28364349 .00000442 00000-0 21092-3 0 9997 2 27844 98.6778 315.6681 0010631 113.3763 246.8536 14.24130051159805 CO-57 1 27848U 03031J 25308.95088184 .00000349 00000-0 17262-3 0 9994 2 27848 98.6805 315.2311 0010322 130.3769 229.8312 14.23445178159472 RS-22 1 27939U 03042A 25309.35663376 .00001632 00000-0 26341-3 0 9998 2 27939 98.3371 122.5671 0010272 257.5808 218.9998 14.72801714182590 CO-58 1 28895U 05043F 25308.36970832 .00002233 00000-0 36649-3 0 9991 2 28895 98.2701 94.8108 0014126 194.4964 165.5839 14.71654828 68672 CO-65 1 32785U 08021C 25309.24891019 .00006826 00000-0 46770-3 0 9998 2 32785 97.8043 281.8342 0011847 72.7907 287.4616 15.06334271951448 CO-66 1 32791U 08021J 25308.43605782 .00018922 00000-0 79710-3 0 9995 2 32791 97.7418 292.3232 0005293 46.9057 313.2621 15.23385204952965 RS-30 1 32953U 08025A 25309.28804380 .00000028 00000-0 12559-3 0 9994 2 32953 82.4996 134.7191 0019952 80.7682 279.5653 12.43170150791878 NOAA-19 1 33591U 09005A 25309.21815946 .00000067 00000-0 59838-4 0 9990 2 33591 98.9815 14.6402 0012904 306.1707 53.8270 14.13423706862844 SRMSAT 1 37841U 11058D 25308.79685917 .00000466 00000-0 10906-3 0 9993 2 37841 19.9733 337.5894 0011536 255.2120 278.7412 14.11491194726077 ZACUBE-1 1 39417U 13066B 25309.13814538 .00005920 00000-0 49179-3 0 9991 2 39417 97.7978 265.6564 0041373 275.9105 83.7402 14.98466543647140 Delfi-N3xt 1 39428U 13066N 25309.23690069 .00008704 00000-0 83522-3 0 9998 2 39428 97.8312 225.3900 0078793 229.5355 129.8976 14.90989001641200 GOMX-1 1 39430U 13066Q 25309.28890865 .00002217 00000-0 34363-3 0 9994 2 39430 97.6630 158.7566 0132379 76.2464 285.3436 14.68331578637041 LO-74 1 39440U 13066AA 25309.30842822 .00006049 00000-0 59049-3 0 9993 2 39440 97.8645 253.0572 0061960 49.8639 310.7985 14.91335495643590 AO-73 1 39444U 13066AE 25309.16919468 .00008822 00000-0 61552-3 0 9995 2 39444 97.8015 272.0234 0037413 243.4603 116.2785 15.05050843645912 DTUSAT-2 1 40030U 14033W 25309.19476575 .00008068 00000-0 48942-3 0 9993 2 40030 98.0719 288.5804 0006446 283.2083 76.8426 15.10812506618810 EO-80 1 40032U 14033Y 25308.87596677 .00008208 00000-0 49701-3 0 9995 2 40032 98.0603 287.6920 0006600 205.3836 154.7069 15.10871550618741 LILACSAT-2 1 40908U 15049K 25309.27521997 .00015286 00000-0 34665-3 0 9990 2 40908 97.4957 333.5393 0008020 359.7723 0.3520 15.43139543561122 IO-86 1 40931U 15052B 25151.18580175 .00001241 00000-0 78118-4 0 9996 2 40931 6.0006 24.0987 0012733 338.8432 21.1169 14.78805930523159 Horyu-4 1 41340U 16012D 25309.03860612 .00040213 00000-0 78455-3 0 9999 2 41340 30.9941 207.9820 0004290 211.6509 148.3882 15.46239926535708 Lapan A3 1 41603U 16040E 25309.31758731 .00004442 00000-0 14992-3 0 9991 2 41603 97.1423 308.2476 0012772 96.5678 263.7019 15.31108605520535 CAS-2T 1 41847U 16066G 25309.20794863 .00001623 00000-0 23597-3 0 9992 2 41847 98.4079 22.3154 0345441 88.6825 275.3907 14.43992650472467 TechnoSat 1 42829U 17042E 25308.98501274 .00004364 00000-0 32750-3 0 9990 2 42829 97.4046 110.8354 0019921 135.6158 224.6669 15.02967909453005 AO-91 1 43017U 17073E 25309.16112252 .00011714 00000-0 56318-3 0 9992 2 43017 97.4992 176.2346 0165266 19.9817 340.7782 15.07634725431578 S-Net D 1 43186U 18014G 25309.28006851 .00007613 00000-0 42647-3 0 9998 2 43186 97.5484 210.6892 0010713 74.8598 285.3818 15.13646633424858 S-Net B 1 43187U 18014H 25309.22142572 .00007295 00000-0 40911-3 0 9992 2 43187 97.5489 210.6097 0011328 71.0415 289.2043 15.13620726424848 S-Net A 1 43188U 18014J 25309.27992738 .00007567 00000-0 42383-3 0 9992 2 43188 97.5499 210.8386 0011244 71.4711 288.7741 15.13652234424852 S-Net C 1 43189U 18014K 25309.22426189 .00007164 00000-0 40171-3 0 9996 2 43189 97.5512 210.8224 0012638 65.1770 295.0775 15.13614076423391 Ten-Koh 1 43677U 18084G 25309.26244786 .00003442 00000-0 27144-3 0 9990 2 43677 98.0672 127.3950 0009310 132.7217 227.4792 15.01427834382544 PO-101 1 43678U 18084H 25309.27827185 .00002523 00000-0 21249-3 0 9991 2 43678 98.1085 131.2347 0007945 138.8509 221.3313 14.99167339382652 QO-100 1 43700U 18090A 25309.11174167 .00000000 00000-0 00000-0 0 9999 2 43700 0.0116 275.7020 0002716 350.1081 204.7734 1.00271754 25439 MinXSS-2 1 43758U 18099A 25309.16283150 .00022113 00000-0 71835-3 0 9995 2 43758 97.4858 16.0828 0009828 357.6078 2.5114 15.31893763379668 AO-95 1 43770U 18099N 25309.10238973 .00011608 00000-0 53181-3 0 9997 2 43770 97.4739 5.6895 0011066 60.3456 299.8880 15.20581248379091 SNUSat 2 1 43782U 18099AA 25309.14586120 .00008769 00000-0 44293-3 0 9992 2 43782 97.4420 1.2123 0011346 7.0604 353.0788 15.17262765379008 SnugLite 1 43784U 18099AC 25309.09884229 .00012067 00000-0 54760-3 0 9995 2 43784 97.4227 1.0885 0003369 24.5382 335.6014 15.20947341379182 ITASat 1 1 43786U 18099AE 25309.13253352 .00007120 00000-0 38142-3 0 9999 2 43786 97.4386 0.2403 0014965 56.8250 303.4415 15.15213266378939 EAGLET 1 1 43790U 18099AJ 25308.88738535 .00005521 00000-0 33788-3 0 9990 2 43790 97.4591 359.4019 0012645 45.6164 314.6099 15.10551354378443 ESEO 1 43792U 18099AL 25309.07599309 .00002773 00000-0 20868-3 0 9999 2 43792 97.4282 350.7907 0012662 21.6806 338.4953 15.03253344378126 JO-97 1 43803U 18099AX 25308.91424195 .00015603 00000-0 62504-3 0 9993 2 43803 97.4488 6.8905 0006393 357.2528 2.8673 15.25111327379341 Suomi 100 1 43804U 18099AY 25309.13035671 .00011632 00000-0 51264-3 0 9995 2 43804 97.4546 5.9117 0011082 357.2830 2.8344 15.21911726379262 ISAT 1 43879U 18111D 25309.24386590 .00038114 00000-0 10141-2 0 9995 2 43879 97.5894 227.5544 0009916 47.7414 312.4670 15.38073679376475 UWE-4 1 43880U 18111E 25309.23500265 .00025295 00000-0 82109-3 0 9993 2 43880 97.5840 224.7976 0013054 54.2851 305.9603 15.31855954376337 Sparrow 1 43881U 18111F 25308.75895213 .00038898 00000-0 97447-3 0 9994 2 43881 97.6071 230.5910 0009368 75.3698 284.8585 15.39922804376515 Prox-1 1 44339U 19036A 25309.26683422 .00015148 00000-0 17541-2 0 9993 2 44339 23.9948 162.6830 0007236 334.8213 25.1932 14.83761284340090 Taurus 1 1 44530U 19059C 25309.30093519 .00007957 00000-0 13891-2 0 9991 2 44530 98.6217 96.1213 0008768 290.3617 69.6644 14.68213726325746 Duchifat 3 1 44854U 19089C 25309.16042274 .00218811 00000-0 14707-2 0 9999 2 44854 36.9305 117.7085 0008872 3.2687 356.8134 15.73547493326169 TO-108 1 44881U 19093C 25309.26266597 .00001164 00000-0 13916-3 0 9994 2 44881 97.7798 21.7275 0015098 102.3838 257.9068 14.85967635318155 FloripaSat 1 1 44885U 19093G 25309.30961414 .00007684 00000-0 61352-3 0 9993 2 44885 97.8080 37.3409 0011909 87.7549 272.5038 15.00499342319039 RS-44 1 44909U 19096E 25309.25296035 .00000018 00000-0 33717-4 0 9996 2 44909 82.5181 128.5220 0216709 308.1276 50.0463 12.79745117273706 SALSAT 1 46495U 20068K 25308.95507302 .00008779 00000-0 35047-3 0 9996 2 46495 97.8758 294.2218 0011423 18.1554 342.0088 15.25361334281129 CSS (TIANHE-1) 1 48274U 21035A 25309.12015811 .00029261 00000-0 34889-3 0 9999 2 48274 41.4669 245.1647 0006174 325.3415 34.7020 15.60401863258158 TUBIN 1 48900U 21059X 25309.28645977 .00190628 00000-0 85841-3 0 9990 2 48900 97.6686 132.6009 0001676 28.9039 331.2322 15.83553999243357 CUTE 1 49263U 21088D 25309.17877748 .00033798 00000-0 49824-3 0 9991 2 49263 97.4397 30.4322 0006306 59.3106 300.8769 15.55308862227454 TeikyoSat 4 1 49396U 21102B 25309.05800766 .00002412 00000-0 15889-3 0 9991 2 49396 97.3946 342.0690 0012021 351.8071 8.2960 15.08374999218928 Z-Sat 1 49399U 21102E 25309.35651566 .00004870 00000-0 25695-3 0 9995 2 49399 97.3634 346.4274 0016082 311.6167 48.3688 15.15896457219505 KOSEN 1 1 49402U 21102H 25309.05995980 .00008433 00000-0 36385-3 0 9995 2 49402 97.3531 350.7474 0013287 279.6237 80.3498 15.22700352219861 HO-113 1 50466U 21131B 25309.29526830 .00000715 00000-0 23593-3 0 9991 2 50466 98.5070 37.9049 0004971 60.5294 299.6391 14.41030621202860 SNUGLITE 2 1 52899U 22065F 25309.13691575 .00001417 00000-0 28160-3 0 9997 2 52899 98.1902 89.8929 0007674 15.9415 344.2028 14.63668932178218 UmKA 1 (RS40S) 1 57172U 23091G 25309.22980214 .00008188 00000-0 41199-3 0 9996 2 57172 97.5401 3.8664 0013942 173.4533 186.6885 15.17399263130004 CubeBel-2 (EU11S) 1 57175U 23091K 25309.21368261 .00011997 00000-0 51708-3 0 9999 2 57175 97.5399 6.0198 0011403 176.0931 184.0396 15.22664429130140 ENSO 1 58470U 23185J 25305.67353662 .00814819 32711-3 13838-2 0 9999 2 58470 97.3445 28.0363 0007748 264.7060 95.3336 16.02640667107770 SONATE-2 1 59112U 24043Q 25309.18591136 .00027993 00000-0 64915-3 0 9992 2 59112 97.5316 84.1201 0008959 302.8215 57.2169 15.42334690 93187 MO-122 1 60209U 24125G 25308.56720509 .00029949 00000-0 67515-3 0 9993 2 60209 97.2573 158.9896 0015208 330.1027 29.9351 15.43082971 74718 GRBBeta 1 60237U 24128C 25309.26611368 .00005748 00000-0 41230-3 0 9994 2 60237 61.9904 280.5949 0057070 88.6703 272.0926 15.04189342 72551 Curium One 1 60242U 24128H 25309.27508219 .00010568 00000-0 67383-3 0 9994 2 60242 61.9799 276.2830 0057083 85.2763 275.4846 15.07855074 72635 ROBUSTA-3A 1 60243U 24128J 25309.26321714 .00010646 00000-0 69015-3 0 9998 2 60243 61.9873 277.7011 0056785 82.8344 277.9201 15.07256462 72618 CatSat 1 60246U 24125J 25309.15185313 .00028675 00000-0 77721-3 0 9993 2 60246 97.2379 157.0225 0034867 284.2547 75.4826 15.36976627 72743 HYPERVIEW-1G (RS66S) 1 61772U 24199AP 25309.32816025 .00038767 00000-0 84984-3 0 9991 2 61772 97.3258 178.3939 0012571 26.8302 333.3594 15.43902078 99834 AO-123 1 61781U 24199AY 25309.29728203 .00011382 00000-0 38230-3 0 9994 2 61781 97.3291 175.1774 0016260 35.4168 324.8150 15.30880362 99614 ZIMSAT 2 1 61783U 24199BA 25309.27526219 .00115804 00000-0 14610-2 0 9996 2 61783 97.3179 180.7901 0010144 25.7568 334.4192 15.59137560103149 HADES-R (SO-124) 1 62690U 25009CK 25309.18932306 .00101819 00000-0 20080-2 0 9992 2 62690 97.3958 30.7161 0003023 263.9628 96.1277 15.46814065 44952 HYDRA-T 1 62692U 25009CM 25309.19741890 .00108407 00000-0 20754-2 0 9999 2 62692 97.3958 30.8572 0003093 257.0392 103.0513 15.47649914 44962 JINJUSat 1B 1 63210U 25052A 25309.20810591 .00016949 00000-0 68216-3 0 9996 2 63210 97.4212 201.6425 0004856 130.3570 229.8092 15.24942017 35860 NUSHSAT 1 1 63211U 25052B 25309.22596594 .00018721 00000-0 73557-3 0 9997 2 63211 97.4199 201.7373 0004705 132.9550 227.2083 15.25726397 35872 TEVEL2-4 1 63213U 25052D 25309.21190262 .00018276 00000-0 73013-3 0 9992 2 63213 97.4122 201.3500 0003392 137.5307 222.6194 15.25179956 35864 TEVEL2-5 1 63214U 25052E 25309.21577338 .00018005 00000-0 72054-3 0 9990 2 63214 97.4119 201.3457 0003352 139.1962 220.9527 15.25126139 35869 TEVEL2-6 1 63215U 25052F 25309.15629570 .00018255 00000-0 73155-3 0 9990 2 63215 97.4125 201.2766 0003390 139.1800 220.9692 15.25076776 35855 TEVEL2-1 1 63217U 25052H 25308.66639576 .00017427 00000-0 70512-3 0 9998 2 63217 97.4097 200.6333 0002791 154.4076 205.7300 15.24764095 35772 TEVEL2-3 1 63218U 25052J 25309.25667863 .00018584 00000-0 75075-3 0 9999 2 63218 97.4099 201.2211 0002828 154.0686 206.0694 15.24803493 35867 TEVEL2-2 1 63219U 25052K 25309.25780843 .00018321 00000-0 74055-3 0 9990 2 63219 97.4096 201.2185 0002848 153.7165 206.4218 15.24787488 35866 TEVEL2-9 1 63237U 25052AD 25308.65973461 .00017132 00000-0 72232-3 0 9997 2 63237 97.4164 200.3838 0005767 201.1864 158.9135 15.23368302 35749 TEVEL2-7 1 63238U 25052AE 25308.67023605 .00016223 00000-0 68669-3 0 9995 2 63238 97.4163 200.3762 0005845 201.5320 158.5672 15.23245327 35746 TEVEL2-8 1 63239U 25052AF 25309.26643076 .00016774 00000-0 71002-3 0 9998 2 63239 97.4159 200.9515 0005912 199.5254 160.5758 15.23238789 35833 HYDRA-W 1 63490U 25052BL 25308.64367683 .00050587 00000-0 14819-2 0 9997 2 63490 97.4089 202.0608 0007085 184.2558 175.8626 15.35026544 35864 HADES-ICM (SO-125) 1 63492U 25052BN 25309.18589941 .00054927 00000-0 16723-2 0 9990 2 63492 97.4106 202.4252 0007208 189.6250 170.4856 15.33782392 35932 Dragonfly 1 65729U 98067XH 25309.20984679 .00098389 00000-0 11678-2 0 9995 2 65729 51.6310 326.1839 0003888 80.0832 280.0600 15.60384423 7286 RSP-03 1 65732U 98067XL 25309.22486807 .00080871 00000-0 10051-2 0 9992 2 65732 51.6304 326.2841 0005986 58.9561 301.2018 15.59251997 7298 GHS-01 1 65733U 98067XM 25308.30363461 .00104594 00000-0 12127-2 0 9996 2 65733 51.6324 330.6344 0004187 71.8718 288.2732 15.60965600 7155 BOTAN 1 65942U 98067XP 25308.30992354 .00070090 00000-0 10417-2 0 9990 2 65942 51.6322 332.1719 0004782 18.8156 341.3011 15.54512341 3875